This is the latest recevied weather packets stored in our database for station/object HB9KBJ-4. If no packets are shown the sender has not sent any weather packets the latest 10 day(s).
| Time | Temp. | Humidity | Pressure | Rain* | Wind** | Luminosity | Snow |
|---|---|---|---|---|---|---|---|
| 1777907405 | 15.56° C | 62% | - | 0 mm | - | - | - |
| 1777906804 | 15.56° C | 62% | - | 0 mm | - | - | - |
| 1777905903 | 15.56° C | 60% | - | 0 mm | - | - | - |
| 1777905603 | 16.11° C | 60% | - | 0 mm | - | - | - |
| 1777905303 | 16.11° C | 58% | - | 0 mm | - | - | - |
| 1777904702 | 16.11° C | 57% | - | 0 mm | - | - | - |
| 1777903801 | 16.67° C | 55% | - | 0 mm | - | - | - |
| 1777903201 | 16.67° C | 55% | - | 0 mm | - | - | - |
| 1777902900 | 16.67° C | 54% | - | 0 mm | - | - | - |
| 1777902600 | 16.67° C | 54% | - | 0 mm | - | - | - |
| 1777902300 | 16.67° C | 54% | - | 0 mm | - | - | - |
| 1777901999 | 16.67° C | 53% | - | 0 mm | - | - | - |
| 1777901699 | 16.67° C | 52% | - | 0 mm | - | - | - |
| 1777901399 | 16.67° C | 52% | - | 0 mm | - | - | - |
| 1777901099 | 17.22° C | 52% | - | 0 mm | - | - | - |
| 1777900798 | 16.67° C | 51% | - | 0 mm | - | - | - |
| 1777900498 | 16.67° C | 52% | - | 0 mm | - | - | - |
| 1777900198 | 16.67° C | 49% | - | 0 mm | - | - | - |
| 1777899898 | 17.22° C | 49% | - | 0 mm | - | - | - |
| 1777899597 | 17.22° C | 48% | - | 0 mm | - | - | - |
| 1777899297 | 17.22° C | 49% | - | 0 mm | - | - | - |
| 1777898997 | 17.22° C | 46% | - | 0 mm | - | - | - |
| 1777898396 | 17.78° C | 46% | - | 0 mm | - | - | - |
| 1777898096 | 17.78° C | 46% | - | 0 mm | - | - | - |
| 1777897796 | 17.22° C | 42% | - | 0 mm | - | - | - |
* Rain since midnight (hover to see other rain measurements)
** Current wind speed in m/s (hover to see current wind gust speed)